Карточка аэропорта UMII

Внимание!
Информация на этой странице в стадии наполнения.
Если вы не увидели какой-то информации, или заметили неточность - пожалуйста сообщите нам!
Спасибо!
Команда RU-STAFF
Название аэропортаVitebsk
Название аэропорта (англ.)Vitebsk
Превышение682 ft. (207.9 m.)
Координаты55°7.5839999999998', 30°20.982'
Высота перехода6000 ft
Эшелон переходаFL80; QNH<977hPa - FL90
Коды ответчика0033; 6230-6277
Зона ОрВДМинск РПИ (UMMV)
Данные METARUMII 251100Z 34004G07MPS 300V060 9999 SCT043 23/10 Q1019 NOSIG
Проноз погоды (TAF)UMII 250807Z 2509/2518 01003G08MPS 9999 BKN020 TEMPO 2509/2518 35004G09MPS
NOTAMshow/hide NOTAM
AWOS   TABLE

Информация о ВПП

ВПП Длина ВПП (м.) Покрытие Курс ВПП Частота ILS
232606Цементобетон233111.9
052606Цементобетон53 

Диспетчерские позиции




Спутниковое изображение